Weather reports worldwide

Advertisment
Koivu-Mankkaa, Finland (2985): temperature & dewpoint: 16.03.2019 19:00:00 - 22.03.2019 19:00:00 (EET)Koivu-Mankkaa, Finland (2985): wind speed & gusts: 16.03.2019 19:00:00 - 22.03.2019 19:00:00 (EET)Koivu-Mankkaa, Finland (2985): wind direction: 16.03.2019 19:00:00 - 22.03.2019 19:00:00 (EET)Koivu-Mankkaa, Finland (2985): reduced air pressure: 16.03.2019 19:00:00 - 22.03.2019 19:00:00 (EET)Koivu-Mankkaa, Finland (2985): visibility: 16.03.2019 19:00:00 - 22.03.2019 19:00:00 (EET)Koivu-Mankkaa, Finland (2985): precipitation: 16.03.2019 19:00:00 - 22.03.2019 19:00:00 (EET)
Date & Time tt [°C] td [°C] ff [km/h] ff [kn] fx [km/h] fx [kn] dd ppp [hPa] vv [km] rr [mm]
22.03.2019 19:00:00 4,8 -5,0 13 7 34 19 WNW 1028,0 33 0,0
22.03.2019 18:00:00 5,9 -5,5 21 12 33 18 WNW 1027,4 35 0,0
22.03.2019 17:00:00 6,7 -7,6 25 14 42 23 WNW 1026,5 42 0,0
22.03.2019 16:00:00 7,0 -8,4 24 13 48 26 NW 1026,2 35 0,0
22.03.2019 15:00:00 6,5 -8,8 33 18 59 32 NW 1025,6 37 0,0
22.03.2019 14:00:00 6,5 -9,1 32 17 59 32 NW 1025,2 34 0,0
22.03.2019 13:00:00 5,8 -8,5 32 17 59 32 NW 1024,8 39 0,0
22.03.2019 12:00:00 5,1 -6,9 31 17 66 36 NW 1024,3 41 0,0
22.03.2019 11:00:00 4,3 -6,7 34 18 64 34 NW 1023,8 33 0,0
22.03.2019 10:00:00 3,3 -6,1 36 20 63 34 NW 1023,0 29 0,0
22.03.2019 09:00:00 2,7 -5,5 32 18 58 31 NW 1022,4 27 0,0
22.03.2019 08:00:00 1,9 -5,5 34 18 54 29 NW 1021,4 28 0,0
22.03.2019 07:00:00 1,3 -5,6 28 15 53 29 NW 1020,3 31 0,0
22.03.2019 06:00:00 1,5 -5,8 30 16 53 28 NW 1019,1 32 0,0
22.03.2019 05:00:00 1,8 -5,9 29 16 53 28 NW 1018,0 32 0,0
22.03.2019 04:00:00 2,1 -5,9 31 17 50 27 NW 1017,1 31 0,0
22.03.2019 03:00:00 2,6 -5,8 33 18 51 28 NW 1016,0 37 0,0
22.03.2019 02:00:00 3,2 -5,1 29 15 53 29 NW 1014,8 44 0,0
22.03.2019 01:00:00 3,9 -4,4 33 18 51 28 NW 1013,7 50 0,0
22.03.2019 00:00:00 4,3 -1,5 23 12 41 22 WNW 1013,5 45 0,0
21.03.2019 23:00:00 4,5 1,1 21 12 32 17 NW 1011,9 25 0,0
21.03.2019 22:00:00 4,4 2,5 22 12 36 19 WNW 1012,0 18 0,0
21.03.2019 21:00:00 3,8 3,1 18 10 27 14 WNW 1011,8 14 0,0
21.03.2019 20:00:00 3,3 3,0 14 7 23 13 W 1011,2 7 0,0
21.03.2019 19:00:00 3,0 2,7 9 5 21 11 WSW 1011,7 3,4 0,0
21.03.2019 18:00:00 3,0 2,5 14 7 32 17 WSW 1011,6 4,0 0,0
21.03.2019 17:00:00 3,3 2,2 18 10 32 17 SW 1011,9 14 0,0
21.03.2019 16:00:00 3,3 1,5 18 10 35 19 SSW 1012,4 13 0,0
21.03.2019 15:00:00 3,8 1,6 21 12 34 18 SW 1013,2 15 0,0
21.03.2019 14:00:00 4,2 1,5 18 10 38 21 SSW 1013,9 22 0,0
21.03.2019 13:00:00 5,3 0,9 19 11 36 19 SW 1014,6 42 0,0
21.03.2019 12:00:00 5,7 -0,1 13 7 26 14 SSW 1015,5 44 0,0
21.03.2019 11:00:00 5,3 -0,3 13 7 23 12 SW 1015,8 42 0,0
21.03.2019 10:00:00 4,7 -0,5 12 6 19 11 WSW 1016,7 44 0,0
21.03.2019 09:00:00 2,9 -0,7 11 6 17 9 WSW 1016,9 44 0,0
21.03.2019 08:00:00 1,6 -0,9 8 5 20 11 WSW 1016,9 38 0,0
21.03.2019 07:00:00 0,8 -1,3 14 8 23 13 W 1016,8 42 0,0
21.03.2019 06:00:00 0,7 -1,3 16 9 27 15 W 1016,7 50 0,0
21.03.2019 05:00:00 0,6 -1,1 17 9 26 14 W 1016,6 42 0,0
21.03.2019 04:00:00 0,4 -1,0 16 8 21 12 W 1016,3 46 0,0
21.03.2019 03:00:00 0,6 -0,8 16 9 25 13 W 1016,0 50 0,0
21.03.2019 02:00:00 0,5 -0,6 16 9 24 13 WSW 1015,6 42 0,0
21.03.2019 01:00:00 0,6 -0,3 16 9 24 13 WSW 1015,3 33 0,0
21.03.2019 00:00:00 0,6 -0,1 15 8 24 13 WSW 1015,1 23 0,0
20.03.2019 23:00:00 1,0 0,0 14 7 28 15 W 1014,8 30 0,0
20.03.2019 22:00:00 1,5 0,4 16 9 23 13 W 1014,5 38 0,0
20.03.2019 21:00:00 2,1 0,5 18 10 29 16 W 1014,1 48 0,0
20.03.2019 20:00:00 2,1 0,9 16 9 30 16 W 1013,6 50 0,0
20.03.2019 19:00:00 1,9 0,9 17 9 27 15 W 1013,1 50 0,0
20.03.2019 18:00:00 1,5 0,8 14 7 41 22 SW 1013,1 27 0,1
20.03.2019 17:00:00 1,4 0,6 26 14 45 24 SW 1013,0 11 0,4
20.03.2019 16:00:00 1,4 0,4 29 16 45 24 SSW 1013,1 4,8 0,9
20.03.2019 15:00:00 2,1 0,1 28 15 46 25 SSW 1013,9 13 0,0
20.03.2019 14:00:00 3,3 -2,2 24 13 49 26 SSW 1014,9 41 0,0
20.03.2019 13:00:00 3,6 -2,8 24 13 43 23 SW 1015,8 38 0,0
20.03.2019 12:00:00 2,9 -0,7 18 10 35 19 SSW 1016,7 40 0,0
20.03.2019 11:00:00 2,0 -0,8 15 8 37 20 SSW 1017,8 40 0,0
20.03.2019 10:00:00 1,6 -2,4 18 10 32 17 SW 1018,2 44 0,0
20.03.2019 09:00:00 0,3 -3,1 11 6 34 18 WSW 1018,6 41 0,0
20.03.2019 08:00:00 -0,6 -3,3 16 9 31 17 W 1019,1 44 0,0
20.03.2019 07:00:00 -0,3 -2,5 15 8 29 16 WSW 1018,8 39 0,0
20.03.2019 06:00:00 -0,2 -1,3 13 7 20 11 WSW 1018,6 7 0,1
20.03.2019 05:00:00 0,3 -1,5 11 6 23 12 W 1018,5 12 0,0
20.03.2019 04:00:00 0,2 -1,6 17 9 29 16 W 1018,6 43 0,0
20.03.2019 03:00:00 0,4 -1,4 16 8 26 14 W 1018,2 45 0,0
20.03.2019 02:00:00 0,8 -0,9 16 9 27 15 WNW 1017,9 50 0,0
20.03.2019 01:00:00 1,1 -0,5 12 7 27 15 WNW 1017,5 44 0,0
20.03.2019 00:00:00 1,4 -0,1 13 7 20 11 WNW 1016,8 48 0,0
19.03.2019 23:00:00 1,7 0,3 14 7 22 12 NW 1016,3 46 0,0
19.03.2019 22:00:00 1,7 0,5 14 8 28 15 NW 1015,7 38 0,0
19.03.2019 21:00:00 2,2 1,0 16 9 29 16 NW 1015,2 37 0,0
19.03.2019 20:00:00 2,5 1,5 13 7 21 11 NW 1014,2 47 0,0
19.03.2019 19:00:00 2,7 1,7 16 8 23 12 NW 1013,0 11 0,1
19.03.2019 18:00:00 2,9 1,8 10 6 27 14 NNW 1012,2 18 0,0
19.03.2019 17:00:00 3,4 1,8 9 5 16 9 NNW 1011,1 41 0,0
19.03.2019 16:00:00 3,3 1,8 9 5 18 10 NW 1010,2 32 0,0
19.03.2019 15:00:00 3,6 2,2 11 6 15 8 NNW 1009,2 17 0,0
19.03.2019 14:00:00 3,8 2,3 6 3 16 9 W 1008,7 12 0,0
19.03.2019 13:00:00 4,8 1,9 7 4 12 6 S 1007,8 40 0,0
19.03.2019 12:00:00 3,9 2,1 8 4 11 6 SSW 1007,2 47 0,0
19.03.2019 11:00:00 2,8 1,9 9 5 14 7 S 1006,7 31 0,0
19.03.2019 10:00:00 2,6 1,8 4 2 13 7 S 1005,8 25 0,0
19.03.2019 09:00:00 2,5 2,0 5 3 17 9 S 1005,1 18 0,0
19.03.2019 08:00:00 2,1 1,8 9 5 16 8 S 1004,6 15 0,0
19.03.2019 07:00:00 1,7 1,3 11 6 16 8 SSW 1004,1 8 0,3
19.03.2019 06:00:00 1,5 1,1 10 5 23 13 S 1003,6 6 0,6
19.03.2019 05:00:00 1,7 1,2 11 6 21 12 SSE 1003,2 6 0,1
19.03.2019 04:00:00 1,8 1,1 11 6 22 12 SSE 1002,8 17 0,0
19.03.2019 03:00:00 1,9 1,2 15 8 28 15 SSE 1002,4 28 0,1
19.03.2019 02:00:00 2,0 1,1 16 9 37 20 SSE 1002,3 17 0,1
19.03.2019 01:00:00 2,2 0,8 22 12 35 19 S 1002,3 37 0,0
19.03.2019 00:00:00 2,7 0,8 19 10 32 17 SSE 1002,1 38 0,0
18.03.2019 23:00:00 2,6 0,7 18 10 36 19 S 1002,0 32 0,0
18.03.2019 22:00:00 2,5 0,7 19 11 32 18 S 1001,9 32 0,0
18.03.2019 21:00:00 2,6 1,2 17 9 30 16 SSE 1001,9 22 0,2
18.03.2019 20:00:00 2,7 1,1 18 10 27 15 S 1001,7 38 0,0
18.03.2019 19:00:00 3,0 1,0 17 9 29 16 S 1001,3 45 0,0
18.03.2019 18:00:00 3,0 0,7 16 9 36 20 S 1000,8 37 0,0
18.03.2019 17:00:00 3,3 0,8 12 6 25 14 S 1000,3 37 0,0
18.03.2019 16:00:00 3,6 0,8 17 9 33 18 S 1000,0 32 0,0
18.03.2019 15:00:00 3,7 0,8 13 7 34 19 S 999,6 41 0,0
18.03.2019 14:00:00 3,8 0,9 19 10 32 17 S 999,3 31 0,0
18.03.2019 13:00:00 3,8 0,9 21 11 40 22 S 998,7 33 0,0
18.03.2019 12:00:00 3,7 1,1 26 14 42 23 S 998,4 29 0,1
18.03.2019 11:00:00 3,2 1,3 23 12 42 23 S 998,0 15 0,0
18.03.2019 10:00:00 3,1 0,9 23 13 41 22 S 997,5 21 0,0
18.03.2019 09:00:00 2,9 1,1 19 10 34 18 S 996,8 23 0,0
18.03.2019 08:00:00 2,5 1,1 16 9 33 18 S 996,3 23 0,0
18.03.2019 07:00:00 2,7 1,4 18 10 - - S 995,8 22 0,0
18.03.2019 06:00:00 2,8 1,8 18 10 39 21 SSW 995,5 22 0,0
18.03.2019 05:00:00 3,0 2,1 22 12 40 22 SSW 995,1 20 1,3
18.03.2019 04:00:00 3,0 2,5 19 10 40 21 S 994,6 3,4 1,5
18.03.2019 03:00:00 2,6 2,1 19 10 30 16 S 994,1 15 0,0
18.03.2019 02:00:00 2,7 2,3 18 10 33 18 S 994,1 18 0,0
18.03.2019 01:00:00 3,2 2,9 21 12 37 20 S 994,5 20 0,0
18.03.2019 00:00:00 3,1 2,7 24 13 42 23 S 994,1 17 0,6
17.03.2019 23:00:00 2,8 2,4 23 12 45 24 S 993,5 7 0,8
17.03.2019 22:00:00 2,4 1,9 24 13 51 27 S 993,4 12 1,4
17.03.2019 21:00:00 2,0 1,4 23 13 50 27 SSE 993,7 4,3 1,3
17.03.2019 20:00:00 1,5 0,9 24 13 45 25 SE 994,2 11 0,6
17.03.2019 19:00:00 0,5 0,2 27 14 49 26 SE 995,0 2,0 1,3
17.03.2019 18:00:00 0,5 0,1 26 14 51 28 ESE 996,1 2,5 0,8
17.03.2019 17:00:00 0,6 0,1 23 13 46 25 ESE 996,4 2,4 0,9
17.03.2019 16:00:00 1,7 -0,2 26 14 47 25 SE 997,4 13 0,0
17.03.2019 15:00:00 2,0 -0,2 20 11 35 19 SE 998,2 50 0,0
17.03.2019 14:00:00 2,0 -0,1 16 9 31 17 SE 999,0 50 0,0
17.03.2019 13:00:00 2,0 0,6 11 6 27 14 SSE 999,5 41 0,0
17.03.2019 12:00:00 1,8 0,8 14 8 26 14 SE 999,9 21 0,0
17.03.2019 11:00:00 1,5 1,1 13 7 25 14 S 1000,0 12 0,0
17.03.2019 10:00:00 1,4 1,2 16 8 25 13 S 999,7 21 0,0
17.03.2019 09:00:00 1,2 1,0 7 4 22 12 S 999,5 1,0 0,0
17.03.2019 08:00:00 1,2 1,0 9 5 19 10 S 999,2 9 0,0
17.03.2019 07:00:00 1,1 1,0 8 4 14 8 SW 998,9 1,6 0,0
17.03.2019 06:00:00 0,9 0,8 10 5 13 7 S 998,4 3,0 0,1
17.03.2019 05:00:00 1,0 0,8 8 4 14 8 S 998,2 0,4 0,0
17.03.2019 04:00:00 1,2 1,0 8 5 14 8 S 998,2 0,5 0,0
17.03.2019 03:00:00 1,3 1,1 6 4 11 6 S 998,0 0,9 0,0
17.03.2019 02:00:00 1,2 1,0 5 3 9 5 SSW 997,6 0,8 0,0
17.03.2019 01:00:00 1,5 1,3 9 5 20 11 S 997,2 0,7 0,0
17.03.2019 00:00:00 1,7 1,4 14 8 25 14 SSE 997,0 4,3 0,1
16.03.2019 23:00:00 1,6 1,2 12 7 23 12 SE 996,6 6 0,0
16.03.2019 22:00:00 1,7 1,3 14 8 26 14 SE 996,3 7 0,3
16.03.2019 21:00:00 1,8 1,3 12 6 23 12 SSE 996,2 6 0,2
16.03.2019 20:00:00 1,7 1,2 13 7 20 11 SE 995,6 9 0,0
16.03.2019 19:00:00 1,8 1,3 13 7 20 11 ESE 995,2 8 0,1

tt = temperature
td = dewpoint
ff = wind speed
fx = gusts
dd = wind direction
ppp = reduced air pressure
vv = visibility
rr = precipitation

Next stations